Tracking 18942 objects as of 18-Jan-2018
HD Live streaming from Space Station
objects crossing your sky now

EKRAN 6

Track EKRAN 6 now!
EKRAN 6 is classified as:


NORAD ID: 12120
Int'l Code: 1980-104A
Perigee: 35,740.3 km
Apogee: 35,827.2 km
Inclination: 12.8 °
Period: 1,435.6 minutes
Semi major axis: 42154 km
RCS: 6.3095 m2 (large)
Launch date: December 26, 1980
Source: Commonwealth of Independent States (former USSR) (CIS)
Launch site: TYURATAM MISSILE AND SPACE COMPLEX (TTMTR)
aabbcc
Your satellite tracking list
Your tracking list is empty




NASA's NSSDC Master Catalog

Two Line Element Set (TLE):
1 12120U 80104A   18017.94143187 +.00000048 +00000-0 +00000-0 0  9995
2 12120 012.8407 324.0803 0010312 337.3522 212.8339 01.00307446096606
Source of the keplerian elements: AFSPC